Torna al catalogo

OSCAR 30 DEB

AttivoPO
NORAD 21878·DEBRIS·🇺🇸 United States

Lanciato Aug 3, 1985 da Vandenberg Space Force Base

Loading…

Prossimi Passaggi (prossime 24 ore)

TLE

AggiornatoSource: Space-Track

Epoca: Sep 14, 2026, 22:35 UTC

1 21878U 85066H   26257.94133664  .00000721  00000-0  10184-2 0  9995
2 21878  90.1687  71.5971 0144408 273.3268 253.5993 13.52055622 10885

Traccia OSCAR 30 DEB in tempo reale con AllMySat

Download on the App Store